Flag for Russia Weather past 2 weeks in Kaliningrad, Russia

Now
57 °F

Passing clouds.


Feels Like: 56 °F
Forecast: 48 / 68 °F
Wind: 6 mph from North

Location: Kaliningrad/Khrabrovo Airport

Current Time: May 29, 2015 at 4:57:40 PM

Latest Report: May 29, 2015 at 4:00 PM


Visibility: N/A

Pressure: 29.92 "Hg

Humidity: 59%

Dew point: 43 °F

Location of KaliningradLocation

Historic Weather in Kaliningrad — Graph

°F

Kaliningrad temperature yesterday

Maximum temperature yesterday: 59 °F (at 3:00 PM)
Minimum temperature yesterday: 43 °F (at 4:00 AM)
Average temperature yesterday: 53 °F

Past Weeks' High & Low Weather Summary

 TemperatureHumidityPressure
High73 °F (May 19, 3:00 PM)100% (May 15, 2:00 AM)30.27 "Hg (May 15, 2:00 AM)
Low36 °F (May 19, 12:30 AM)43% (May 25, 10:30 AM)29.62 "Hg (May 19, 2:00 PM)
Average52 °F77%29.95 "Hg
* Reported May 14 3:00 PM — May 29 3:30 PM, Kaliningrad, Weather by CustomWeather, © 2015

Note: Actual official high and low records may vary slightly from our data, if they occured in-between our weather recording intervals... More about our weather records

Advertising

Kaliningrad weather history for previous 24 hours

 ConditionsComfort  
Time TempWeatherWind HumidityBarometerVisibility
3:30 PM
Fri, May 29
59 °FScattered clouds.8 mph51%29.92 "HgN/A
3:00 PM59 °FScattered clouds.8 mph51%29.92 "HgN/A
2:30 PM59 °FScattered clouds.8 mph51%29.92 "HgN/A
2:00 PM59 °FScattered clouds.10 mph55%29.92 "HgN/A
1:30 PM59 °FPartly sunny.8 mph59%29.92 "HgN/A
1:00 PM59 °FPartly sunny.8 mph59%29.92 "HgN/A
12:30 PM59 °FPartly sunny.8 mph68%29.92 "HgN/A
12:00 PM57 °FPartly sunny.8 mph77%29.92 "HgN/A
11:30 AM55 °FPartly sunny.8 mph72%29.92 "HgN/A
11:00 AM55 °FBroken clouds.8 mph77%29.92 "HgN/A
10:30 AM57 °FBroken clouds.6 mph67%29.92 "HgN/A
10:00 AM57 °FBroken clouds.6 mph67%29.92 "HgN/A
9:30 AM55 °FBroken clouds.8 mph72%29.89 "HgN/A
9:00 AM54 °FBroken clouds.8 mph77%29.89 "HgN/A
8:30 AM54 °FMostly cloudy.8 mph77%29.89 "HgN/A
8:00 AM52 °FMostly cloudy.10 mph82%29.89 "HgN/A
7:30 AM54 °FMostly cloudy.10 mph72%29.89 "HgN/A
7:00 AM52 °FMostly cloudy.8 mph88%29.86 "HgN/A
6:30 AM52 °FMostly cloudy.6 mph88%29.86 "HgN/A
6:00 AM52 °FMostly cloudy.6 mph88%29.86 "HgN/A
5:00 AM50 °FSprinkles. Mostly cloudy.3 mph82%29.83 "HgN/A
4:30 AM52 °FClear.3 mph72%29.83 "Hg10 mi
4:00 AM52 °FPassing clouds.6 mph67%29.83 "HgN/A
3:00 AM52 °FClear.8 mph67%29.80 "Hg10 mi
2:00 AM50 °FPassing clouds.8 mph71%29.83 "HgN/A
1:00 AM52 °FClear.6 mph72%29.86 "Hg10 mi
12:00 AM52 °FClear.8 mph72%29.86 "Hg10 mi
11:00 PM
Thu, May 28
50 °FPassing clouds.6 mph82%29.86 "HgN/A
10:30 PM48 °FPassing clouds.6 mph87%29.89 "HgN/A
10:00 PM48 °FSunny.6 mph87%29.89 "Hg10 mi
9:30 PM48 °FSunny.6 mph87%29.89 "Hg10 mi
9:00 PM52 °FSunny.3 mph77%29.89 "Hg10 mi
8:30 PM52 °FSunny.6 mph77%29.89 "Hg10 mi
8:00 PM55 °FPassing clouds.6 mph72%29.89 "HgN/A
7:30 PM55 °FPassing clouds.3 mph67%29.89 "HgN/A
7:00 PM55 °FSunny.3 mph67%29.89 "Hg10 mi
6:30 PM55 °FPassing clouds.3 mph67%29.89 "HgN/A
6:00 PM57 °FPassing clouds.3 mph59%29.92 "HgN/A
5:30 PM59 °FPassing clouds.3 mph59%29.92 "HgN/A
5:00 PM57 °FPassing clouds.8 mph59%29.92 "HgN/A
4:30 PM57 °FScattered clouds.6 mph59%29.92 "HgN/A
4:00 PM59 °FScattered clouds.8 mph51%29.95 "HgN/A
Weather by CustomWeather, © 2015

See weather overviewHow to use our weather pages